カタログに戻る

STARLINK-32495

運用中通信VLEO
NORAD 62052·PAYLOAD·🇺🇸 United States

打ち上げ Nov 21, 2024 から Cape Canaveral Space Force Station

Loading…

次のパス (今後24時間)

TLE

最新Source: CelesTrak SupGP

元期: Sep 15, 2026, 02:21 UTC

1 62052C 24216W   26258.09840278 -.00000251  00000+0 -91035-5 0  2581
2 62052  43.0006 273.3592 0001191 266.7966 162.5338 15.27585271    17

AllMySatでSTARLINK-32495をリアルタイム追跡

Download on the App Store